Location: Buch
(50.1863°N, 11.0141°E)
Time: 21:29:04
(UTC+00:00)

Cosmos 2056 Rocket - Pass Details

Date: 18 January 2020
Orbit: 741 x 801 km, 74.0° (Epoch: 17 February)

Event Time Altitude Azimuth Distance (km) Brightness Sun altitude
Exits shadow 06:16:06 - 334° (NNW) 3,197 6.3 -8.1°
Reaches altitude 10° 06:18:13 10° 333° (NNW) 2,380 5.6 -7.8°
Maximum altitude 06:23:38 75° 250° (WSW) 835 3.6 -7.0°
Drops below altitude 10° 06:29:03 10° 165° (SSE) 2,372 6.7 -6.2°
Sets 06:31:26 0° 164° (SSE) 3,297 7.5 -5.9°
